TITAN 3C TRANSTAGE DEB *, 38697

Orbit data source: Space-Track

TITAN 3C TRANSTAGE DEB *, 38697 is space debris in GEO originally from a launch on Thu, 26 Sep 1968 UTC launched from the Air Force Eastern Test Range (AFETR). Debris objects in space refer to the collection of defunct objects orbiting the Earth. Examples of debris include non-operational satellites, rocket bodies, and fragments generated from explosions, collisions, or faulty payload assembly.

Not visible in the next 10 days
Identifier
38697, 1968-081X
Orbit
GEO
Country
Flag of USUS
Related business
Manufacturer
Unknown
Mission
Spacecraft
Bus & Motor
Unknown
Mass
Unknown
Launch date (UTC)
1968-09-26 (57 years ago)
Launch vehicle
Unknown
Launch site
Air Force Eastern Test Range (AFETR)
Object type
Payload
Rocket body
Debris
Shape & HBR
Unknown shape, 1.1 m
Radar Cross Section
Small (<0.1 m²)

Expand to show TLE details & history
Last TLE update: 2 days ago

TLE from 2 days ago
0 TITAN 3C TRANSTAGE DEB *
1 38697U 68081X   26066.69892413 -.00000052  00000-0  00000+0 0  9995
2 38697   5.2083  42.3241 0393762   1.5469 358.6827  1.01485579 73834
Epoch: 2026-03-07T16:46Z
TLE epoch observation values (Epoch: 2026-03-07T16:46:27.044Z)
Latitude
-0°
Longitude
-14.54398°
Altitude
33,804.79 km
Speed
3.211 km/s
True Right ascension
02h 49m 56s
True Declination
0° 00' 00"
Sunlit
Object was in daylight at epoch
Visualization orbit readout
Latitude
Unknown
Longitude
Unknown
Altitude
Unknown
Speed
Unknown
Apparent Right ascension
Unknown
Apparent Declination
Unknown
Sunlit
N/A
Visualization observer readout
Local Sidereal Time
19:20:06
Azimuth
Unknown
Elevation
Unknown
Doppler factor
Unknown
Orbital elements
Apogee altitude
37,097.853 km
Perigee altitude
33,803.724 km
Semi-major axis
41,828.925 km
Eccentricity
0.03938
Inclination
5.2083°
RAAN
42.3241°
Arg. of periapsis
1.5469°
True anomaly
358.57361°
Mean anomaly
358.6827°
Eccentric anomaly
358.62871°
Mean motion
0.2537 °/min
Orbital period
1,418.97 mins
BSTAR
0
Loading maneuver chart data...
Computing Atmospheric mass density...

Documentation

Showing up to 5 results
|